ESK74D LOWI-LFMN

Flight info

Callsign ESK74D
Flight time 0h 57m
Altitude 36000
Route LOWI/08 N0464F350 BREN2J BRENO M726 NAXAV DCT RENTA DCT ATPED DCT LUSIL DCT EVANO DCT ENOBA Z185 BORDI BORD8R LFMN/22R
Aircraft B738/M-SDE2E3FGHIJ3J4J7RWXY/L

Departure

Time 2026-05-06 10:54
Airport Innsbruck Airport (LOWI)

Arrival

Time 2026-05-06 11:51
Airport Nice-Côte d'Azur Airport (LFMN)
Time Latitude Longitude Altitude Speed Heading
2026-05-06 10:40 47.25825 11.35049 1913 ft 0 kts 171°
2026-05-06 10:47 47.25828 11.35049 1913 ft 2 kts 171°
2026-05-06 10:47 47.25841 11.35045 1897 ft 2 kts 172°
2026-05-06 10:48 47.25854 11.35043 1899 ft 2 kts 176°
2026-05-06 10:48 47.25864 11.35043 1901 ft 1 kts 189°
2026-05-06 10:48 47.25870 11.35045 1899 ft 1 kts 210°
2026-05-06 10:48 47.25875 11.35050 1897 ft 1 kts 234°
2026-05-06 10:49 47.25878 11.35057 1897 ft 1 kts 249°
2026-05-06 10:49 47.25879 11.35065 1899 ft 1 kts 255°
2026-05-06 10:49 47.25881 11.35073 1898 ft 1 kts 258°
2026-05-06 10:49 47.25882 11.35081 1899 ft 1 kts 260°
2026-05-06 10:50 47.25882 11.35085 1900 ft 0 kts 261°
2026-05-06 10:50 47.25882 11.35084 1900 ft 1 kts 260°
2026-05-06 10:50 47.25873 11.35002 1908 ft 15 kts 261°
2026-05-06 10:51 47.25849 11.34782 1899 ft 26 kts 261°
2026-05-06 10:51 47.25821 11.34528 1898 ft 24 kts 261°
2026-05-06 10:51 47.25795 11.34292 1913 ft 23 kts 261°
2026-05-06 10:51 47.25772 11.34064 1913 ft 22 kts 264°
2026-05-06 10:52 47.25819 11.33856 1907 ft 22 kts 303°
2026-05-06 10:52 47.25903 11.33686 1912 ft 16 kts 306°
2026-05-06 10:52 47.25930 11.33548 1908 ft 14 kts 260°
2026-05-06 10:52 47.25911 11.33377 1908 ft 22 kts 261°
2026-05-06 10:53 47.25867 11.33214 1912 ft 13 kts 214°
2026-05-06 10:53 47.25838 11.33101 1912 ft 8 kts 285°
2026-05-06 10:53 47.25868 11.33074 1905 ft 3 kts 21°
2026-05-06 10:53 47.25881 11.33110 1912 ft 7 kts 71°
2026-05-06 10:54 47.25911 11.33378 1912 ft 63 kts 81°
2026-05-06 10:54 47.26020 11.34394 1908 ft 135 kts 82°
2026-05-06 10:54 47.26218 11.35953 2336 ft 163 kts 85°
2026-05-06 10:54 47.26413 11.37704 3104 ft 186 kts 83°
2026-05-06 10:55 47.26629 11.39609 4158 ft 188 kts 82°
2026-05-06 10:55 47.26825 11.41372 5532 ft 163 kts 85°
2026-05-06 10:55 47.27012 11.43088 6067 ft 183 kts 84°
2026-05-06 10:55 47.27243 11.45061 6374 ft 210 kts 80°
2026-05-06 10:56 47.27741 11.47235 6573 ft 237 kts 70°
2026-05-06 10:56 47.28420 11.49577 6821 ft 258 kts 69°
2026-05-06 10:56 47.29157 11.52083 7166 ft 279 kts 69°
2026-05-06 10:56 47.29939 11.54792 7750 ft 293 kts 70°
2026-05-06 10:57 47.30731 11.57561 8667 ft 293 kts 71°
2026-05-06 10:57 47.31523 11.60357 9484 ft 298 kts 72°
2026-05-06 10:57 47.31892 11.63340 10127 ft 299 kts 97°
2026-05-06 10:57 47.31320 11.66340 10340 ft 315 kts 123°
2026-05-06 10:58 47.29864 11.68832 10524 ft 331 kts 146°
2026-05-06 10:58 47.27778 11.70418 10693 ft 348 kts 165°
2026-05-06 10:58 47.25378 11.70836 11077 ft 358 kts 184°
2026-05-06 10:58 47.22932 11.69917 11739 ft 362 kts 206°
2026-05-06 10:59 47.20957 11.67707 12415 ft 369 kts 228°
2026-05-06 10:59 47.19742 11.64320 13180 ft 376 kts 253°
2026-05-06 10:59 47.19595 11.60507 13846 ft 385 kts 276°
2026-05-06 10:59 47.20213 11.56639 14388 ft 394 kts 283°
2026-05-06 11:00 47.20917 11.52714 14856 ft 398 kts 276°
2026-05-06 11:00 47.20876 11.48692 15502 ft 394 kts 255°
2026-05-06 11:00 47.19855 11.44993 16149 ft 391 kts 235°
2026-05-06 11:00 47.18045 11.42015 16697 ft 393 kts 217°
2026-05-06 11:01 47.15681 11.39979 17258 ft 396 kts 202°
2026-05-06 11:01 47.12997 11.39045 17777 ft 401 kts 186°
2026-05-06 11:01 47.10192 11.38759 18280 ft 405 kts 184°
2026-05-06 11:01 47.07378 11.38544 18831 ft 406 kts 184°
2026-05-06 11:02 47.04545 11.38316 19306 ft 410 kts 184°
2026-05-06 11:02 47.01690 11.38048 19806 ft 412 kts 185°
2026-05-06 11:02 46.98765 11.37753 20295 ft 414 kts 185°
2026-05-06 11:02 46.95938 11.37455 20757 ft 418 kts 185°
2026-05-06 11:03 46.93012 11.37134 21095 ft 422 kts 185°
2026-05-06 11:03 46.90092 11.36809 21732 ft 420 kts 185°
2026-05-06 11:03 46.87171 11.36485 22212 ft 422 kts 185°
2026-05-06 11:03 46.84228 11.36158 22619 ft 425 kts 185°
2026-05-06 11:04 46.81309 11.35838 23022 ft 428 kts 185°
2026-05-06 11:04 46.78333 11.35513 23408 ft 431 kts 185°
2026-05-06 11:04 46.75332 11.35191 23734 ft 433 kts 185°
2026-05-06 11:04 46.72318 11.34881 24120 ft 434 kts 185°
2026-05-06 11:05 46.69302 11.34574 24504 ft 435 kts 185°
2026-05-06 11:05 46.66269 11.34265 24796 ft 438 kts 185°
2026-05-06 11:05 46.63220 11.33953 25147 ft 440 kts 185°
2026-05-06 11:05 46.60163 11.33638 25506 ft 441 kts 185°
2026-05-06 11:06 46.57098 11.33324 25852 ft 442 kts 185°
2026-05-06 11:06 46.54020 11.33007 26138 ft 444 kts 185°
2026-05-06 11:06 46.50951 11.32456 26392 ft 446 kts 195°
2026-05-06 11:06 46.48095 11.30712 26686 ft 448 kts 211°
2026-05-06 11:07 46.45622 11.27977 27042 ft 449 kts 222°
2026-05-06 11:07 46.43637 11.24474 27421 ft 452 kts 237°
2026-05-06 11:07 46.42172 11.20436 27897 ft 451 kts 241°
2026-05-06 11:07 46.40811 11.16348 28470 ft 449 kts 242°
2026-05-06 11:08 46.39465 11.12268 28921 ft 448 kts 242°
2026-05-06 11:08 46.38109 11.08215 29325 ft 447 kts 241°
2026-05-06 11:08 46.36736 11.04181 29767 ft 445 kts 240°
2026-05-06 11:08 46.35374 11.00229 30191 ft 443 kts 240°
2026-05-06 11:09 46.33997 10.96257 30633 ft 439 kts 240°
2026-05-06 11:09 46.32630 10.92324 31058 ft 436 kts 240°
2026-05-06 11:09 46.31268 10.88410 31465 ft 434 kts 240°
2026-05-06 11:09 46.29914 10.84524 31847 ft 431 kts 241°
2026-05-06 11:10 46.28572 10.80665 32237 ft 428 kts 241°
2026-05-06 11:10 46.27237 10.76822 32570 ft 427 kts 241°
2026-05-06 11:10 46.25905 10.72994 32894 ft 425 kts 241°
2026-05-06 11:10 46.24581 10.69190 33290 ft 422 kts 241°
2026-05-06 11:11 46.23266 10.65421 33726 ft 418 kts 242°
2026-05-06 11:11 46.21959 10.61679 34023 ft 417 kts 242°
2026-05-06 11:11 46.20652 10.57943 34240 ft 418 kts 242°
2026-05-06 11:11 46.19339 10.54197 34432 ft 418 kts 242°
2026-05-06 11:12 46.18030 10.50462 34699 ft 417 kts 242°
2026-05-06 11:12 46.16719 10.46730 34929 ft 417 kts 242°
2026-05-06 11:12 46.15406 10.43000 35088 ft 418 kts 242°
2026-05-06 11:12 46.14086 10.39258 35287 ft 419 kts 242°
2026-05-06 11:13 46.12766 10.35521 35496 ft 419 kts 242°
2026-05-06 11:13 46.11446 10.31788 35734 ft 418 kts 242°
2026-05-06 11:13 46.10125 10.28056 35872 ft 419 kts 242°
2026-05-06 11:14 46.07475 10.20581 35875 ft 418 kts 242°
2026-05-06 11:14 46.04832 10.13153 35892 ft 415 kts 241°
2026-05-06 11:15 46.01636 10.06288 35873 ft 412 kts 233°
2026-05-06 11:15 45.98226 9.99682 35898 ft 410 kts 233°
2026-05-06 11:16 45.94838 9.93095 35886 ft 410 kts 233°
2026-05-06 11:16 45.91486 9.86561 35909 ft 408 kts 233°
2026-05-06 11:17 45.88120 9.80002 35878 ft 409 kts 233°
2026-05-06 11:17 45.84736 9.73422 35888 ft 410 kts 233°
2026-05-06 11:18 45.81343 9.66839 35897 ft 411 kts 233°
2026-05-06 11:18 45.77930 9.60235 35874 ft 412 kts 233°
2026-05-06 11:19 45.74516 9.53643 35880 ft 411 kts 233°
2026-05-06 11:19 45.71103 9.47069 36026 ft 411 kts 233°
2026-05-06 11:20 45.67688 9.40505 36036 ft 411 kts 233°
2026-05-06 11:20 45.64277 9.33965 36031 ft 410 kts 233°
2026-05-06 11:21 45.60890 9.27485 35852 ft 409 kts 233°
2026-05-06 11:21 45.57484 9.20984 35852 ft 409 kts 233°
2026-05-06 11:22 45.54076 9.14494 35867 ft 408 kts 233°
2026-05-06 11:22 45.50664 9.08012 35846 ft 408 kts 233°
2026-05-06 11:23 45.47254 9.01546 35856 ft 408 kts 233°
2026-05-06 11:23 45.43840 8.95088 35842 ft 408 kts 232°
2026-05-06 11:24 45.40430 8.88649 35936 ft 408 kts 232°
2026-05-06 11:24 45.37013 8.82216 35948 ft 407 kts 232°
2026-05-06 11:24 45.35115 8.79235 35954 ft 407 kts 221°
2026-05-06 11:25 45.32868 8.76787 35970 ft 408 kts 215°
2026-05-06 11:25 45.27752 8.73286 35976 ft 412 kts 201°
2026-05-06 11:26 45.22266 8.70884 35950 ft 413 kts 200°
2026-05-06 11:26 45.16763 8.68508 35827 ft 413 kts 200°
2026-05-06 11:27 45.11276 8.66105 35829 ft 412 kts 201°
2026-05-06 11:27 45.05803 8.63691 35831 ft 412 kts 201°
2026-05-06 11:28 45.00374 8.61294 35837 ft 411 kts 201°
2026-05-06 11:28 44.94910 8.58886 35833 ft 411 kts 201°
2026-05-06 11:29 44.89452 8.56487 35832 ft 410 kts 201°
2026-05-06 11:29 44.84001 8.54095 35831 ft 410 kts 201°
2026-05-06 11:30 44.78562 8.51713 35835 ft 409 kts 201°
2026-05-06 11:30 44.73132 8.49340 35832 ft 408 kts 201°
2026-05-06 11:31 44.67700 8.46971 35961 ft 407 kts 200°
2026-05-06 11:31 44.62341 8.44647 35813 ft 397 kts 200°
2026-05-06 11:32 44.57102 8.42372 35829 ft 393 kts 201°
2026-05-06 11:32 44.52766 8.40484 35521 ft 397 kts 201°
2026-05-06 11:32 44.49244 8.38954 34772 ft 395 kts 201°
2026-05-06 11:33 44.46670 8.37836 34196 ft 392 kts 201°
2026-05-06 11:33 44.44057 8.36720 33480 ft 391 kts 200°
2026-05-06 11:33 44.41461 8.35603 32720 ft 390 kts 201°
2026-05-06 11:33 44.38870 8.34478 32012 ft 390 kts 200°
2026-05-06 11:34 44.36279 8.33355 31298 ft 390 kts 201°
2026-05-06 11:34 44.33716 8.32135 30546 ft 388 kts 207°
2026-05-06 11:34 44.31379 8.30268 29794 ft 386 kts 216°
2026-05-06 11:34 44.29942 8.28794 29219 ft 386 kts 219°
2026-05-06 11:35 44.27943 8.26311 28460 ft 385 kts 225°
2026-05-06 11:35 44.26290 8.23369 27646 ft 386 kts 233°
2026-05-06 11:35 44.24771 8.20276 26755 ft 387 kts 234°
2026-05-06 11:35 44.23258 8.17174 25872 ft 389 kts 234°
2026-05-06 11:36 44.21204 8.12996 25009 ft 402 kts 234°
2026-05-06 11:36 44.20119 8.10801 24535 ft 408 kts 234°
2026-05-06 11:36 44.18517 8.07569 23856 ft 403 kts 234°
2026-05-06 11:36 44.16927 8.04383 23142 ft 399 kts 234°
2026-05-06 11:37 44.15353 8.01232 22425 ft 393 kts 234°
2026-05-06 11:37 44.13804 7.98126 21742 ft 388 kts 234°
2026-05-06 11:37 44.12274 7.95056 21117 ft 383 kts 234°
2026-05-06 11:37 44.10760 7.92028 20426 ft 380 kts 234°
2026-05-06 11:38 44.09254 7.89023 19771 ft 377 kts 234°
2026-05-06 11:38 44.07765 7.86056 19191 ft 372 kts 235°
2026-05-06 11:38 44.06289 7.83117 18574 ft 369 kts 235°
2026-05-06 11:38 44.04822 7.80197 17921 ft 367 kts 234°
2026-05-06 11:39 44.03370 7.77311 17300 ft 362 kts 235°
2026-05-06 11:39 44.01929 7.74452 16749 ft 357 kts 235°
2026-05-06 11:39 44.00530 7.71675 16588 ft 347 kts 235°
2026-05-06 11:39 43.99122 7.68885 16395 ft 361 kts 235°
2026-05-06 11:40 43.97649 7.65965 16163 ft 373 kts 235°
2026-05-06 11:40 43.96155 7.63004 15960 ft 377 kts 235°
2026-05-06 11:40 43.94651 7.60025 15748 ft 376 kts 235°
2026-05-06 11:40 43.93184 7.57120 15346 ft 361 kts 235°
2026-05-06 11:41 43.92227 7.55230 14639 ft 361 kts 235°
2026-05-06 11:41 43.91386 7.53569 14333 ft 355 kts 235°
2026-05-06 11:41 43.89996 7.50829 14072 ft 350 kts 235°
2026-05-06 11:41 43.88564 7.48007 13807 ft 366 kts 235°
2026-05-06 11:42 43.86908 7.45310 13418 ft 365 kts 220°
2026-05-06 11:42 43.84805 7.43593 13089 ft 349 kts 203°
2026-05-06 11:42 43.82500 7.42868 12824 ft 334 kts 187°
2026-05-06 11:42 43.80195 7.43027 12540 ft 322 kts 174°
2026-05-06 11:43 43.78092 7.43806 12296 ft 313 kts 162°
2026-05-06 11:43 43.76214 7.45265 12008 ft 308 kts 147°
2026-05-06 11:43 43.74574 7.47081 11795 ft 296 kts 146°
2026-05-06 11:44 43.71501 7.50551 11325 ft 275 kts 146°
2026-05-06 11:44 43.70044 7.52180 11116 ft 265 kts 146°
2026-05-06 11:44 43.68527 7.53500 10907 ft 247 kts 168°
2026-05-06 11:44 43.66912 7.53739 10368 ft 229 kts 192°
2026-05-06 11:45 43.65421 7.53210 9917 ft 213 kts 205°
2026-05-06 11:45 43.64124 7.52500 9782 ft 189 kts 207°
2026-05-06 11:45 43.62945 7.51833 9391 ft 181 kts 207°
2026-05-06 11:45 43.61778 7.51174 8850 ft 181 kts 207°
2026-05-06 11:46 43.60617 7.50523 8342 ft 180 kts 207°
2026-05-06 11:46 43.59634 7.49554 7808 ft 173 kts 237°
2026-05-06 11:46 43.59224 7.48036 7283 ft 171 kts 266°
2026-05-06 11:46 43.59475 7.46440 6749 ft 175 kts 297°
2026-05-06 11:47 43.60166 7.45061 6302 ft 174 kts 300°
2026-05-06 11:47 43.60855 7.43688 5822 ft 172 kts 300°
2026-05-06 11:47 43.61530 7.42337 5297 ft 173 kts 300°
2026-05-06 11:47 43.62246 7.40912 4546 ft 185 kts 301°
2026-05-06 11:48 43.62996 7.39430 3804 ft 191 kts 301°
2026-05-06 11:48 43.63756 7.37934 3069 ft 195 kts 301°
2026-05-06 11:48 43.64537 7.36396 2316 ft 197 kts 301°
2026-05-06 11:48 43.65320 7.34860 1782 ft 189 kts 300°
2026-05-06 11:49 43.66042 7.33444 1507 ft 172 kts 298°
2026-05-06 11:49 43.66542 7.32055 1339 ft 156 kts 274°
2026-05-06 11:49 43.66616 7.30573 1182 ft 157 kts 273°
2026-05-06 11:49 43.66982 7.29173 1012 ft 152 kts 290°
2026-05-06 11:50 43.67452 7.27893 916 ft 150 kts 289°
2026-05-06 11:50 43.67827 7.26554 723 ft 148 kts 277°
2026-05-06 11:50 43.67900 7.25180 455 ft 137 kts 261°
2026-05-06 11:50 43.67615 7.23960 232 ft 133 kts 236°
2026-05-06 11:51 43.67054 7.22975 93 ft 130 kts 223°
2026-05-06 11:51 43.66420 7.22112 16 ft 118 kts 223°
2026-05-06 11:51 43.65986 7.21517 15 ft 70 kts 224°
2026-05-06 11:51 43.65703 7.21123 17 ft 39 kts 225°
2026-05-06 11:52 43.65712 7.20885 12 ft 26 kts 351°
2026-05-06 11:52 43.65873 7.20813 11 ft 24 kts 323°
2026-05-06 11:52 43.65922 7.20703 11 ft 0 kts 290°